Location: Eschertshofen
(49.3064°N, 11.5756°E)
Time: 16:39:34
(UTC+00:00)

CENTAUR R/B - Pass Details

Date: 18 September 2020
Orbit: 753 x 1435 km, 63.5° (Epoch: 26 October)

Event Time Altitude Azimuth Distance (km) Brightness Sun altitude
Rises 21:14:36 0° 314° (NW) 4,204 6.8 -33.7°
Reaches altitude 10° 21:17:37 10° 305° (NW) 3,320 6.0 -34.0°
Maximum altitude 21:24:35 32° 247° (WSW) 2,203 4.3 -34.6°
Enters shadow 21:25:43 31° 233° (SW) 2,255 4.2 -34.7°
